iso_date,epoch_date,Year,Hour,Min,DOY,POS_DOY,Lat,Lon,BP,Ts,Ta,has_bp,has_ts,has_ta,BuoyID,Buoy_Type,Buoy_Owner,Logistics,Hemisphere
2014-05-21T00:00:00Z,1400630400,2014,0,0,141.0,141.0,72.5094,-127.7072,1024.2,-3.4,-999.0,yes,yes,no,300234060430200,CALIB,unknown,unknown,North
2014-05-21T01:00:28Z,1400634029,2014,1,0,141.042,141.042,72.5088,-127.7026,1024.1,-3.4,-999.0,yes,yes,no,300234060430200,CALIB,unknown,unknown,North
2014-05-21T01:59:31Z,1400637571,2014,2,0,141.083,141.083,72.5078,-127.698,1023.8,-3.5,-999.0,yes,yes,no,300234060430200,CALIB,unknown,unknown,North
2014-05-21T03:00:00Z,1400641200,2014,3,0,141.125,141.125,72.5064,-127.6948,1023.2,-3.6,-999.0,yes,yes,no,300234060430200,CALIB,unknown,unknown,North
2014-05-21T04:00:28Z,1400644829,2014,4,0,141.167,141.167,72.5048,-127.6932,1022.8,-3.8,-999.0,yes,yes,no,300234060430200,CALIB,unknown,unknown,North
2014-05-21T04:59:31Z,1400648371,2014,5,0,141.208,141.208,72.5032,-127.6926,1022.5,-4.0,-999.0,yes,yes,no,300234060430200,CALIB,unknown,unknown,North
2014-05-21T06:00:00Z,1400652000,2014,6,0,141.25,141.25,72.5018,-127.693,1022.4,-4.2,-999.0,yes,yes,no,300234060430200,CALIB,unknown,unknown,North
2014-05-21T07:00:28Z,1400655629,2014,7,0,141.292,141.292,72.5012,-127.6942,1022.2,-4.4,-999.0,yes,yes,no,300234060430200,CALIB,unknown,unknown,North
2014-05-21T07:59:31Z,1400659171,2014,8,0,141.333,141.333,72.5012,-127.6956,1021.9,-4.5,-999.0,yes,yes,no,300234060430200,CALIB,unknown,unknown,North
2014-05-21T09:00:00Z,1400662800,2014,9,0,141.375,141.375,72.502,-127.6958,1021.7,-4.6,-999.0,yes,yes,no,300234060430200,CALIB,unknown,unknown,North
2014-05-21T10:00:28Z,1400666429,2014,10,0,141.417,141.417,72.503,-127.6944,1021.6,-4.7,-999.0,yes,yes,no,300234060430200,CALIB,unknown,unknown,North
2014-05-21T10:59:31Z,1400669971,2014,11,0,141.458,141.458,72.5042,-127.6918,1021.4,-4.7,-999.0,yes,yes,no,300234060430200,CALIB,unknown,unknown,North
2014-05-21T12:00:00Z,1400673600,2014,12,0,141.5,141.5,72.505,-127.689,1021.1,-4.8,-999.0,yes,yes,no,300234060430200,CALIB,unknown,unknown,North
2014-05-21T13:00:28Z,1400677229,2014,13,0,141.542,141.542,72.5054,-127.6864,1021.0,-4.8,-999.0,yes,yes,no,300234060430200,CALIB,unknown,unknown,North
2014-05-21T13:59:31Z,1400680771,2014,14,0,141.583,141.583,72.5052,-127.6844,1020.8,-4.7,-999.0,yes,yes,no,300234060430200,CALIB,unknown,unknown,North
2014-05-21T15:00:00Z,1400684400,2014,15,0,141.625,141.625,72.5046,-127.6826,1020.7,-4.5,-999.0,yes,yes,no,300234060430200,CALIB,unknown,unknown,North
2014-05-21T16:00:28Z,1400688029,2014,16,0,141.667,141.667,72.5036,-127.6806,1020.7,-4.3,-999.0,yes,yes,no,300234060430200,CALIB,unknown,unknown,North
2014-05-21T16:59:31Z,1400691571,2014,17,0,141.708,141.708,72.5022,-127.6778,1020.5,-4.2,-999.0,yes,yes,no,300234060430200,CALIB,unknown,unknown,North
2014-05-21T18:00:00Z,1400695200,2014,18,0,141.75,141.75,72.501,-127.675,1020.5,-4.0,-999.0,yes,yes,no,300234060430200,CALIB,unknown,unknown,North
2014-05-21T19:00:28Z,1400698829,2014,19,0,141.792,141.792,72.5,-127.672,1020.5,-3.8,-999.0,yes,yes,no,300234060430200,CALIB,unknown,unknown,North
2014-05-21T19:59:31Z,1400702371,2014,20,0,141.833,141.833,72.4994,-127.6686,1020.4,-3.7,-999.0,yes,yes,no,300234060430200,CALIB,unknown,unknown,North
2014-05-21T21:00:00Z,1400706000,2014,21,0,141.875,141.875,72.4994,-127.6638,1020.3,-3.5,-999.0,yes,yes,no,300234060430200,CALIB,unknown,unknown,North
2014-05-21T22:00:28Z,1400709629,2014,22,0,141.917,141.917,72.5,-127.6574,1020.1,-3.3,-999.0,yes,yes,no,300234060430200,CALIB,unknown,unknown,North
2014-05-21T22:59:31Z,1400713171,2014,23,0,141.958,141.958,72.5004,-127.6502,1020.0,-3.3,-999.0,yes,yes,no,300234060430200,CALIB,unknown,unknown,North
2014-05-22T00:00:00Z,1400716800,2014,0,0,142.0,142.0,72.501,-127.642,1019.6,-3.4,-999.0,yes,yes,no,300234060430200,CALIB,unknown,unknown,North
2014-05-22T01:00:28Z,1400720429,2014,1,0,142.042,142.042,72.5012,-127.6336,1019.4,-3.5,-999.0,yes,yes,no,300234060430200,CALIB,unknown,unknown,North
2014-05-22T01:59:31Z,1400723971,2014,2,0,142.083,142.083,72.501,-127.6264,1019.3,-3.5,-999.0,yes,yes,no,300234060430200,CALIB,unknown,unknown,North
2014-05-22T03:00:00Z,1400727600,2014,3,0,142.125,142.125,72.5002,-127.621,1019.1,-3.6,-999.0,yes,yes,no,300234060430200,CALIB,unknown,unknown,North
2014-05-22T04:00:28Z,1400731229,2014,4,0,142.167,142.167,72.499,-127.6166,1018.7,-3.7,-999.0,yes,yes,no,300234060430200,CALIB,unknown,unknown,North
2014-05-22T04:59:31Z,1400734771,2014,5,0,142.208,142.208,72.4982,-127.6136,1018.4,-3.9,-999.0,yes,yes,no,300234060430200,CALIB,unknown,unknown,North
2014-05-22T06:00:00Z,1400738400,2014,6,0,142.25,142.25,72.4978,-127.6122,1018.4,-4.0,-999.0,yes,yes,no,300234060430200,CALIB,unknown,unknown,North
2014-05-22T07:00:28Z,1400742029,2014,7,0,142.292,142.292,72.498,-127.6112,1018.3,-4.2,-999.0,yes,yes,no,300234060430200,CALIB,unknown,unknown,North
2014-05-22T07:59:31Z,1400745571,2014,8,0,142.333,142.333,72.4988,-127.6104,1018.1,-4.3,-999.0,yes,yes,no,300234060430200,CALIB,unknown,unknown,North
2014-05-22T09:00:00Z,1400749200,2014,9,0,142.375,142.375,72.5002,-127.6096,1017.8,-4.4,-999.0,yes,yes,no,300234060430200,CALIB,unknown,unknown,North
2014-05-22T10:00:28Z,1400752829,2014,10,0,142.417,142.417,72.5018,-127.6082,1017.7,-4.5,-999.0,yes,yes,no,300234060430200,CALIB,unknown,unknown,North
2014-05-22T10:59:31Z,1400756371,2014,11,0,142.458,142.458,72.5034,-127.606,1017.5,-4.5,-999.0,yes,yes,no,300234060430200,CALIB,unknown,unknown,North
2014-05-22T12:00:00Z,1400760000,2014,12,0,142.5,142.5,72.5048,-127.6026,1017.3,-4.5,-999.0,yes,yes,no,300234060430200,CALIB,unknown,unknown,North
2014-05-22T13:00:28Z,1400763629,2014,13,0,142.542,142.542,72.506,-127.5982,1017.0,-4.5,-999.0,yes,yes,no,300234060430200,CALIB,unknown,unknown,North
2014-05-22T13:59:31Z,1400767171,2014,14,0,142.583,142.583,72.507,-127.5942,1016.8,-4.4,-999.0,yes,yes,no,300234060430200,CALIB,unknown,unknown,North
2014-05-22T15:00:00Z,1400770800,2014,15,0,142.625,142.625,72.5076,-127.5904,1016.7,-4.2,-999.0,yes,yes,no,300234060430200,CALIB,unknown,unknown,North
2014-05-22T16:00:28Z,1400774429,2014,16,0,142.667,142.667,72.5084,-127.5858,1016.3,-4.0,-999.0,yes,yes,no,300234060430200,CALIB,unknown,unknown,North
2014-05-22T16:59:31Z,1400777971,2014,17,0,142.708,142.708,72.5094,-127.581,1016.2,-3.7,-999.0,yes,yes,no,300234060430200,CALIB,unknown,unknown,North
2014-05-22T18:00:00Z,1400781600,2014,18,0,142.75,142.75,72.5102,-127.5754,1015.9,-3.3,-999.0,yes,yes,no,300234060430200,CALIB,unknown,unknown,North
2014-05-22T19:00:28Z,1400785229,2014,19,0,142.792,142.792,72.5114,-127.5694,1015.6,-3.0,-999.0,yes,yes,no,300234060430200,CALIB,unknown,unknown,North
2014-05-22T19:59:31Z,1400788771,2014,20,0,142.833,142.833,72.5134,-127.5616,1015.3,-2.7,-999.0,yes,yes,no,300234060430200,CALIB,unknown,unknown,North
2014-05-22T21:00:00Z,1400792400,2014,21,0,142.875,142.875,72.5158,-127.5522,1015.0,-2.5,-999.0,yes,yes,no,300234060430200,CALIB,unknown,unknown,North
2014-05-22T22:00:28Z,1400796029,2014,22,0,142.917,142.917,72.5186,-127.5418,1014.7,-2.4,-999.0,yes,yes,no,300234060430200,CALIB,unknown,unknown,North
2014-05-22T22:59:31Z,1400799571,2014,23,0,142.958,142.958,72.5212,-127.529,1014.3,-2.2,-999.0,yes,yes,no,300234060430200,CALIB,unknown,unknown,North
2014-05-23T00:00:00Z,1400803200,2014,0,0,143.0,143.0,72.5236,-127.516,1014.0,-2.0,-999.0,yes,yes,no,300234060430200,CALIB,unknown,unknown,North
2014-05-23T01:00:28Z,1400806829,2014,1,0,143.042,143.042,72.5254,-127.504,1013.7,-1.9,-999.0,yes,yes,no,300234060430200,CALIB,unknown,unknown,North
2014-05-23T01:59:31Z,1400810371,2014,2,0,143.083,143.083,72.5264,-127.495,1013.3,-1.8,-999.0,yes,yes,no,300234060430200,CALIB,unknown,unknown,North
2014-05-23T03:00:00Z,1400814000,2014,3,0,143.125,143.125,72.5264,-127.4896,1013.0,-1.9,-999.0,yes,yes,no,300234060430200,CALIB,unknown,unknown,North
2014-05-23T04:00:28Z,1400817629,2014,4,0,143.167,143.167,72.5262,-127.4868,1012.9,-2.1,-999.0,yes,yes,no,300234060430200,CALIB,unknown,unknown,North
2014-05-23T04:59:31Z,1400821171,2014,5,0,143.208,143.208,72.526,-127.4862,1012.9,-2.2,-999.0,yes,yes,no,300234060430200,CALIB,unknown,unknown,North
2014-05-23T06:00:00Z,1400824800,2014,6,0,143.25,143.25,72.5258,-127.4862,1012.7,-2.4,-999.0,yes,yes,no,300234060430200,CALIB,unknown,unknown,North
2014-05-23T07:00:28Z,1400828429,2014,7,0,143.292,143.292,72.5256,-127.486,1012.9,-2.6,-999.0,yes,yes,no,300234060430200,CALIB,unknown,unknown,North
2014-05-23T07:59:31Z,1400831971,2014,8,0,143.333,143.333,72.5254,-127.4852,1012.8,-2.9,-999.0,yes,yes,no,300234060430200,CALIB,unknown,unknown,North
2014-05-23T09:00:00Z,1400835600,2014,9,0,143.375,143.375,72.5248,-127.4842,1012.8,-3.0,-999.0,yes,yes,no,300234060430200,CALIB,unknown,unknown,North
2014-05-23T10:00:28Z,1400839229,2014,10,0,143.417,143.417,72.5244,-127.4824,1012.7,-3.1,-999.0,yes,yes,no,300234060430200,CALIB,unknown,unknown,North
2014-05-23T10:59:31Z,1400842771,2014,11,0,143.458,143.458,72.524,-127.4808,1012.8,-3.3,-999.0,yes,yes,no,300234060430200,CALIB,unknown,unknown,North
2014-05-23T12:00:00Z,1400846400,2014,12,0,143.5,143.5,72.5234,-127.48,1012.9,-3.4,-999.0,yes,yes,no,300234060430200,CALIB,unknown,unknown,North
2014-05-23T13:00:28Z,1400850029,2014,13,0,143.542,143.542,72.523,-127.4796,1013.1,-3.4,-999.0,yes,yes,no,300234060430200,CALIB,unknown,unknown,North
2014-05-23T13:59:31Z,1400853571,2014,14,0,143.583,143.583,72.5224,-127.4794,1013.0,-3.3,-999.0,yes,yes,no,300234060430200,CALIB,unknown,unknown,North
2014-05-23T15:00:00Z,1400857200,2014,15,0,143.625,143.625,72.5218,-127.4796,1013.2,-3.2,-999.0,yes,yes,no,300234060430200,CALIB,unknown,unknown,North
2014-05-23T16:00:28Z,1400860829,2014,16,0,143.667,143.667,72.521,-127.4798,1013.4,-3.1,-999.0,yes,yes,no,300234060430200,CALIB,unknown,unknown,North
2014-05-23T16:59:31Z,1400864371,2014,17,0,143.708,143.708,72.5198,-127.4798,1013.0,-2.9,-999.0,yes,yes,no,300234060430200,CALIB,unknown,unknown,North
2014-05-23T18:00:00Z,1400868000,2014,18,0,143.75,143.75,72.5184,-127.4796,1013.0,-2.8,-999.0,yes,yes,no,300234060430200,CALIB,unknown,unknown,North
2014-05-23T19:00:28Z,1400871629,2014,19,0,143.792,143.792,72.5166,-127.4792,1013.1,-2.7,-999.0,yes,yes,no,300234060430200,CALIB,unknown,unknown,North
2014-05-23T19:59:31Z,1400875171,2014,20,0,143.833,143.833,72.5148,-127.4784,1013.4,-2.5,-999.0,yes,yes,no,300234060430200,CALIB,unknown,unknown,North
2014-05-23T21:00:00Z,1400878800,2014,21,0,143.875,143.875,72.513,-127.4772,1013.3,-2.3,-999.0,yes,yes,no,300234060430200,CALIB,unknown,unknown,North
2014-05-23T22:00:28Z,1400882429,2014,22,0,143.917,143.917,72.5108,-127.4754,1013.5,-2.2,-999.0,yes,yes,no,300234060430200,CALIB,unknown,unknown,North
2014-05-23T22:59:31Z,1400885971,2014,23,0,143.958,143.958,72.509,-127.474,1013.7,-2.2,-999.0,yes,yes,no,300234060430200,CALIB,unknown,unknown,North
2014-05-24T00:00:00Z,1400889600,2014,0,0,144.0,144.0,72.5072,-127.4732,1013.9,-2.2,-999.0,yes,yes,no,300234060430200,CALIB,unknown,unknown,North
2014-05-24T01:00:28Z,1400893229,2014,1,0,144.042,144.042,72.5056,-127.473,1014.1,-2.3,-999.0,yes,yes,no,300234060430200,CALIB,unknown,unknown,North
2014-05-24T01:59:31Z,1400896771,2014,2,0,144.083,144.083,72.5042,-127.4714,1014.2,-2.4,-999.0,yes,yes,no,300234060430200,CALIB,unknown,unknown,North
2014-05-24T03:00:00Z,1400900400,2014,3,0,144.125,144.125,72.5028,-127.47,1014.4,-2.6,-999.0,yes,yes,no,300234060430200,CALIB,unknown,unknown,North
2014-05-24T04:00:28Z,1400904029,2014,4,0,144.167,144.167,72.5012,-127.469,1014.4,-3.0,-999.0,yes,yes,no,300234060430200,CALIB,unknown,unknown,North
2014-05-24T04:59:31Z,1400907571,2014,5,0,144.208,144.208,72.5,-127.4682,1014.7,-3.2,-999.0,yes,yes,no,300234060430200,CALIB,unknown,unknown,North
2014-05-24T06:00:00Z,1400911200,2014,6,0,144.25,144.25,72.4984,-127.4674,1014.9,-3.5,-999.0,yes,yes,no,300234060430200,CALIB,unknown,unknown,North
2014-05-24T07:00:28Z,1400914829,2014,7,0,144.292,144.292,72.4968,-127.4672,1015.2,-3.8,-999.0,yes,yes,no,300234060430200,CALIB,unknown,unknown,North
2014-05-24T07:59:31Z,1400918371,2014,8,0,144.333,144.333,72.4954,-127.4658,1015.5,-4.1,-999.0,yes,yes,no,300234060430200,CALIB,unknown,unknown,North
2014-05-24T09:00:00Z,1400922000,2014,9,0,144.375,144.375,72.4948,-127.4638,1015.6,-4.4,-999.0,yes,yes,no,300234060430200,CALIB,unknown,unknown,North
2014-05-24T10:00:28Z,1400925629,2014,10,0,144.417,144.417,72.4944,-127.4614,1015.8,-4.7,-999.0,yes,yes,no,300234060430200,CALIB,unknown,unknown,North
2014-05-24T10:59:31Z,1400929171,2014,11,0,144.458,144.458,72.4946,-127.4596,1016.1,-5.0,-999.0,yes,yes,no,300234060430200,CALIB,unknown,unknown,North
2014-05-24T12:00:00Z,1400932800,2014,12,0,144.5,144.5,72.4948,-127.4574,1016.3,-5.3,-999.0,yes,yes,no,300234060430200,CALIB,unknown,unknown,North
2014-05-24T13:00:28Z,1400936429,2014,13,0,144.542,144.542,72.4952,-127.4554,1016.4,-5.4,-999.0,yes,yes,no,300234060430200,CALIB,unknown,unknown,North
2014-05-24T13:59:31Z,1400939971,2014,14,0,144.583,144.583,72.4956,-127.4544,1016.2,-5.2,-999.0,yes,yes,no,300234060430200,CALIB,unknown,unknown,North
2014-05-24T15:00:00Z,1400943600,2014,15,0,144.625,144.625,72.4958,-127.4534,1016.1,-5.0,-999.0,yes,yes,no,300234060430200,CALIB,unknown,unknown,North
2014-05-24T16:00:28Z,1400947229,2014,16,0,144.667,144.667,72.496,-127.4524,1016.2,-4.8,-999.0,yes,yes,no,300234060430200,CALIB,unknown,unknown,North
2014-05-24T16:59:31Z,1400950771,2014,17,0,144.708,144.708,72.4962,-127.4518,1016.5,-4.3,-999.0,yes,yes,no,300234060430200,CALIB,unknown,unknown,North
2014-05-24T18:00:00Z,1400954400,2014,18,0,144.75,144.75,72.4964,-127.4496,1016.7,-3.8,-999.0,yes,yes,no,300234060430200,CALIB,unknown,unknown,North
2014-05-24T19:00:28Z,1400958029,2014,19,0,144.792,144.792,72.4966,-127.4456,1016.6,-3.2,-999.0,yes,yes,no,300234060430200,CALIB,unknown,unknown,North
2014-05-24T19:59:31Z,1400961571,2014,20,0,144.833,144.833,72.4972,-127.4412,1016.5,-2.9,-999.0,yes,yes,no,300234060430200,CALIB,unknown,unknown,North
2014-05-24T21:00:00Z,1400965200,2014,21,0,144.875,144.875,72.4976,-127.433,1016.1,-2.7,-999.0,yes,yes,no,300234060430200,CALIB,unknown,unknown,North
2014-05-24T22:00:28Z,1400968829,2014,22,0,144.917,144.917,72.498,-127.4244,1015.8,-2.7,-999.0,yes,yes,no,300234060430200,CALIB,unknown,unknown,North
2014-05-24T22:59:31Z,1400972371,2014,23,0,144.958,144.958,72.4984,-127.4164,1015.7,-2.8,-999.0,yes,yes,no,300234060430200,CALIB,unknown,unknown,North
2014-05-25T00:00:00Z,1400976000,2014,0,0,145.0,145.0,72.4984,-127.4102,1015.5,-3.0,-999.0,yes,yes,no,300234060430200,CALIB,unknown,unknown,North
2014-05-25T01:00:28Z,1400979629,2014,1,0,145.042,145.042,72.4984,-127.4066,1015.5,-3.3,-999.0,yes,yes,no,300234060430200,CALIB,unknown,unknown,North
2014-05-25T01:59:31Z,1400983171,2014,2,0,145.083,145.083,72.498,-127.405,1015.5,-3.6,-999.0,yes,yes,no,300234060430200,CALIB,unknown,unknown,North
2014-05-25T03:00:00Z,1400986800,2014,3,0,145.125,145.125,72.498,-127.405,1015.4,-3.8,-999.0,yes,yes,no,300234060430200,CALIB,unknown,unknown,North
2014-05-25T04:00:28Z,1400990429,2014,4,0,145.167,145.167,72.498,-127.4052,1015.1,-4.1,-999.0,yes,yes,no,300234060430200,CALIB,unknown,unknown,North
2014-05-25T04:59:31Z,1400993971,2014,5,0,145.208,145.208,72.4978,-127.4052,1014.8,-4.3,-999.0,yes,yes,no,300234060430200,CALIB,unknown,unknown,North
2014-05-25T06:00:00Z,1400997600,2014,6,0,145.25,145.25,72.4976,-127.405,1014.7,-4.5,-999.0,yes,yes,no,300234060430200,CALIB,unknown,unknown,North
2014-05-25T07:00:28Z,1401001229,2014,7,0,145.292,145.292,72.4976,-127.405,1014.5,-4.7,-999.0,yes,yes,no,300234060430200,CALIB,unknown,unknown,North
2014-05-25T07:59:31Z,1401004771,2014,8,0,145.333,145.333,72.4974,-127.405,1014.4,-4.9,-999.0,yes,yes,no,300234060430200,CALIB,unknown,unknown,North
2014-05-25T09:00:00Z,1401008400,2014,9,0,145.375,145.375,72.4974,-127.405,1014.2,-5.0,-999.0,yes,yes,no,300234060430200,CALIB,unknown,unknown,North
2014-05-25T10:00:28Z,1401012029,2014,10,0,145.417,145.417,72.4974,-127.4048,1013.8,-5.1,-999.0,yes,yes,no,300234060430200,CALIB,unknown,unknown,North
2014-05-25T10:59:31Z,1401015571,2014,11,0,145.458,145.458,72.4974,-127.4048,1013.6,-5.2,-999.0,yes,yes,no,300234060430200,CALIB,unknown,unknown,North
2014-05-25T12:00:00Z,1401019200,2014,12,0,145.5,145.5,72.4974,-127.405,1013.3,-5.2,-999.0,yes,yes,no,300234060430200,CALIB,unknown,unknown,North
2014-05-25T13:00:28Z,1401022829,2014,13,0,145.542,145.542,72.4974,-127.405,1012.9,-5.1,-999.0,yes,yes,no,300234060430200,CALIB,unknown,unknown,North
2014-05-25T13:59:31Z,1401026371,2014,14,0,145.583,145.583,72.4974,-127.4052,1012.4,-5.1,-999.0,yes,yes,no,300234060430200,CALIB,unknown,unknown,North
2014-05-25T15:00:00Z,1401030000,2014,15,0,145.625,145.625,72.4972,-127.405,1012.1,-4.9,-999.0,yes,yes,no,300234060430200,CALIB,unknown,unknown,North
2014-05-25T16:00:28Z,1401033629,2014,16,0,145.667,145.667,72.4972,-127.405,1011.6,-4.8,-999.0,yes,yes,no,300234060430200,CALIB,unknown,unknown,North
2014-05-25T16:59:31Z,1401037171,2014,17,0,145.708,145.708,72.4966,-127.405,1011.3,-4.6,-999.0,yes,yes,no,300234060430200,CALIB,unknown,unknown,North
2014-05-25T18:00:00Z,1401040800,2014,18,0,145.75,145.75,72.4962,-127.405,1011.0,-4.3,-999.0,yes,yes,no,300234060430200,CALIB,unknown,unknown,North
2014-05-25T19:00:28Z,1401044429,2014,19,0,145.792,145.792,72.4956,-127.4046,1010.8,-4.0,-999.0,yes,yes,no,300234060430200,CALIB,unknown,unknown,North
2014-05-25T19:59:31Z,1401047971,2014,20,0,145.833,145.833,72.4948,-127.4042,1010.4,-3.8,-999.0,yes,yes,no,300234060430200,CALIB,unknown,unknown,North
2014-05-25T21:00:00Z,1401051600,2014,21,0,145.875,145.875,72.494,-127.4036,1010.5,-3.5,-999.0,yes,yes,no,300234060430200,CALIB,unknown,unknown,North
2014-05-25T22:00:28Z,1401055229,2014,22,0,145.917,145.917,72.4938,-127.4034,1010.1,-3.4,-999.0,yes,yes,no,300234060430200,CALIB,unknown,unknown,North
2014-05-25T22:59:31Z,1401058771,2014,23,0,145.958,145.958,72.4932,-127.4032,1009.9,-3.3,-999.0,yes,yes,no,300234060430200,CALIB,unknown,unknown,North
2014-05-26T00:00:00Z,1401062400,2014,0,0,146.0,146.0,72.4932,-127.403,1009.9,-3.3,-999.0,yes,yes,no,300234060430200,CALIB,unknown,unknown,North
2014-05-26T01:00:28Z,1401066029,2014,1,0,146.042,146.042,72.4932,-127.403,1009.8,-3.3,-999.0,yes,yes,no,300234060430200,CALIB,unknown,unknown,North
2014-05-26T01:59:31Z,1401069571,2014,2,0,146.083,146.083,72.493,-127.4028,1009.8,-3.4,-999.0,yes,yes,no,300234060430200,CALIB,unknown,unknown,North
2014-05-26T03:00:00Z,1401073200,2014,3,0,146.125,146.125,72.493,-127.4026,1009.7,-3.6,-999.0,yes,yes,no,300234060430200,CALIB,unknown,unknown,North
2014-05-26T04:00:28Z,1401076829,2014,4,0,146.167,146.167,72.4926,-127.4024,1009.7,-3.8,-999.0,yes,yes,no,300234060430200,CALIB,unknown,unknown,North
2014-05-26T04:59:31Z,1401080371,2014,5,0,146.208,146.208,72.4922,-127.4024,1010.0,-4.0,-999.0,yes,yes,no,300234060430200,CALIB,unknown,unknown,North
2014-05-26T06:00:00Z,1401084000,2014,6,0,146.25,146.25,72.4914,-127.402,1010.1,-4.2,-999.0,yes,yes,no,300234060430200,CALIB,unknown,unknown,North
2014-05-26T07:00:28Z,1401087629,2014,7,0,146.292,146.292,72.4904,-127.402,1010.6,-4.4,-999.0,yes,yes,no,300234060430200,CALIB,unknown,unknown,North
2014-05-26T07:59:31Z,1401091171,2014,8,0,146.333,146.333,72.4892,-127.4026,1011.2,-4.6,-999.0,yes,yes,no,300234060430200,CALIB,unknown,unknown,North
2014-05-26T09:00:00Z,1401094800,2014,9,0,146.375,146.375,72.4876,-127.4032,1011.5,-4.8,-999.0,yes,yes,no,300234060430200,CALIB,unknown,unknown,North
2014-05-26T10:00:28Z,1401098429,2014,10,0,146.417,146.417,72.486,-127.4034,1011.9,-4.9,-999.0,yes,yes,no,300234060430200,CALIB,unknown,unknown,North
2014-05-26T10:59:31Z,1401101971,2014,11,0,146.458,146.458,72.4846,-127.403,1012.5,-5.1,-999.0,yes,yes,no,300234060430200,CALIB,unknown,unknown,North
2014-05-26T12:00:00Z,1401105600,2014,12,0,146.5,146.5,72.4834,-127.4024,1013.0,-5.2,-999.0,yes,yes,no,300234060430200,CALIB,unknown,unknown,North
2014-05-26T13:00:28Z,1401109229,2014,13,0,146.542,146.542,72.4824,-127.4012,1013.6,-5.2,-999.0,yes,yes,no,300234060430200,CALIB,unknown,unknown,North
2014-05-26T13:59:31Z,1401112771,2014,14,0,146.583,146.583,72.4816,-127.3992,1014.1,-5.2,-999.0,yes,yes,no,300234060430200,CALIB,unknown,unknown,North
2014-05-26T15:00:00Z,1401116400,2014,15,0,146.625,146.625,72.4808,-127.3974,1014.5,-5.1,-999.0,yes,yes,no,300234060430200,CALIB,unknown,unknown,North
2014-05-26T16:00:28Z,1401120029,2014,16,0,146.667,146.667,72.48,-127.3956,1014.8,-5.0,-999.0,yes,yes,no,300234060430200,CALIB,unknown,unknown,North
2014-05-26T16:59:31Z,1401123571,2014,17,0,146.708,146.708,72.4796,-127.3934,1015.4,-4.7,-999.0,yes,yes,no,300234060430200,CALIB,unknown,unknown,North
2014-05-26T18:00:00Z,1401127200,2014,18,0,146.75,146.75,72.479,-127.392,1015.7,-4.5,-999.0,yes,yes,no,300234060430200,CALIB,unknown,unknown,North
2014-05-26T19:00:28Z,1401130829,2014,19,0,146.792,146.792,72.4784,-127.3904,1016.2,-4.2,-999.0,yes,yes,no,300234060430200,CALIB,unknown,unknown,North
2014-05-26T19:59:31Z,1401134371,2014,20,0,146.833,146.833,72.4772,-127.388,1016.7,-4.0,-999.0,yes,yes,no,300234060430200,CALIB,unknown,unknown,North
2014-05-26T21:00:00Z,1401138000,2014,21,0,146.875,146.875,72.476,-127.3854,1017.1,-3.8,-999.0,yes,yes,no,300234060430200,CALIB,unknown,unknown,North
2014-05-26T22:00:28Z,1401141629,2014,22,0,146.917,146.917,72.475,-127.3826,1017.3,-3.7,-999.0,yes,yes,no,300234060430200,CALIB,unknown,unknown,North
2014-05-26T22:59:31Z,1401145171,2014,23,0,146.958,146.958,72.4746,-127.3806,1017.4,-3.7,-999.0,yes,yes,no,300234060430200,CALIB,unknown,unknown,North
2014-05-27T00:00:00Z,1401148800,2014,0,0,147.0,147.0,72.4748,-127.3796,1017.6,-3.7,-999.0,yes,yes,no,300234060430200,CALIB,unknown,unknown,North
2014-05-27T01:00:28Z,1401152429,2014,1,0,147.042,147.042,72.4752,-127.379,1017.4,-3.9,-999.0,yes,yes,no,300234060430200,CALIB,unknown,unknown,North
2014-05-27T01:59:31Z,1401155971,2014,2,0,147.083,147.083,72.476,-127.3788,1017.5,-4.1,-999.0,yes,yes,no,300234060430200,CALIB,unknown,unknown,North
2014-05-27T03:00:00Z,1401159600,2014,3,0,147.125,147.125,72.477,-127.379,1017.5,-4.2,-999.0,yes,yes,no,300234060430200,CALIB,unknown,unknown,North
2014-05-27T04:00:28Z,1401163229,2014,4,0,147.167,147.167,72.478,-127.3792,1017.2,-4.5,-999.0,yes,yes,no,300234060430200,CALIB,unknown,unknown,North
2014-05-27T04:59:31Z,1401166771,2014,5,0,147.208,147.208,72.4786,-127.3796,1016.6,-4.8,-999.0,yes,yes,no,300234060430200,CALIB,unknown,unknown,North
2014-05-27T06:00:00Z,1401170400,2014,6,0,147.25,147.25,72.479,-127.3798,1016.4,-5.2,-999.0,yes,yes,no,300234060430200,CALIB,unknown,unknown,North
2014-05-27T07:00:28Z,1401174029,2014,7,0,147.292,147.292,72.4796,-127.3808,1016.4,-5.4,-999.0,yes,yes,no,300234060430200,CALIB,unknown,unknown,North
2014-05-27T07:59:31Z,1401177571,2014,8,0,147.333,147.333,72.4798,-127.3812,1016.1,-5.5,-999.0,yes,yes,no,300234060430200,CALIB,unknown,unknown,North
2014-05-27T09:00:00Z,1401181200,2014,9,0,147.375,147.375,72.4798,-127.3812,1015.9,-5.5,-999.0,yes,yes,no,300234060430200,CALIB,unknown,unknown,North
2014-05-27T10:00:28Z,1401184829,2014,10,0,147.417,147.417,72.4798,-127.381,1015.8,-5.3,-999.0,yes,yes,no,300234060430200,CALIB,unknown,unknown,North
2014-05-27T10:59:31Z,1401188371,2014,11,0,147.458,147.458,72.4798,-127.3806,1015.4,-5.2,-999.0,yes,yes,no,300234060430200,CALIB,unknown,unknown,North
2014-05-27T12:00:00Z,1401192000,2014,12,0,147.5,147.5,72.4794,-127.3802,1015.2,-5.1,-999.0,yes,yes,no,300234060430200,CALIB,unknown,unknown,North
2014-05-27T13:00:28Z,1401195629,2014,13,0,147.542,147.542,72.479,-127.38,1014.9,-4.9,-999.0,yes,yes,no,300234060430200,CALIB,unknown,unknown,North
2014-05-27T13:59:31Z,1401199171,2014,14,0,147.583,147.583,72.4786,-127.3802,1014.7,-4.7,-999.0,yes,yes,no,300234060430200,CALIB,unknown,unknown,North
2014-05-27T15:00:00Z,1401202800,2014,15,0,147.625,147.625,72.478,-127.3804,1014.7,-4.5,-999.0,yes,yes,no,300234060430200,CALIB,unknown,unknown,North